Location: Newark
(48.8833°N, 0.9236°W)
Time: 18:09:07
(UTC+00:00)

Vanguard 1 Rocket - All Passes

Search period start: 21 November 2019 00:00
Search period end: 01 December 2019 00:00
Orbit: 651 x 4226 km, 34.3° (Epoch: 20 November)

Date Brightness Start Highest point End Pass type
(mag) Time Alt. Az. Time Alt. Az. Time Alt. Az.
21 Nov - 04:18:14 10° SSW 04:20:38 14° S 04:23:15 10° SE visible
21 Nov - 06:41:55 10° SW 06:44:39 14° S 06:47:57 10° SSE visible
22 Nov - 03:08:28 10° SSW 03:10:07 12° S 03:11:43 10° SSE visible
22 Nov - 05:31:24 10° SW 05:33:56 14° S 05:36:52 10° SSE visible
23 Nov - 04:21:01 10° SSW 04:23:21 14° S 04:25:52 10° SSE visible
23 Nov - 06:46:46 10° SSW 06:47:26 10° SSW 06:48:08 10° S visible
24 Nov - 03:10:37 10° SSW 03:12:49 13° S 03:14:58 10° SE visible
24 Nov - 05:35:00 10° SSW 05:36:42 12° S 05:38:33 10° SSE visible
25 Nov - 02:00:15 10° SSW 02:02:14 12° S 02:04:04 10° SSE night (unlit)
25 Nov - 04:24:01 10° SW 04:26:06 13° S 04:28:16 10° SSE visible
26 Nov - 00:50:16 10° S 00:51:31 11° SSE 00:52:41 10° SSE night (unlit)
26 Nov - 03:13:06 10° SW 03:15:34 14° S 03:17:55 10° SSE visible
27 Nov - 02:02:03 10° SSW 02:05:00 15° S 02:07:33 10° SE night (unlit)
27 Nov - 04:27:23 10° SSW 04:28:49 11° SSW 04:30:17 10° S visible
28 Nov - 00:50:55 10° SSW 00:54:18 14° S 00:57:06 10° SE night (unlit)
28 Nov - 03:15:46 10° SW 03:18:17 14° S 03:20:39 10° SSE visible
28 Nov - 23:39:58 10° SSW 23:43:25 13° SSE 23:46:16 10° SE night (unlit)
29 Nov - 02:04:14 10° SW 02:07:45 16° S 02:10:42 10° SE night (unlit)
29 Nov - 22:29:55 10° S 22:32:17 11° SSE 22:34:22 10° SSE night (unlit)
30 Nov - 00:52:33 10° SW 00:57:06 18° S 01:00:35 10° SE night (unlit)
30 Nov - 03:18:39 10° SW 03:21:00 13° SSW 03:23:11 10° SSE visible
30 Nov - 23:40:47 10° SSW 23:46:13 17° S 23:50:14 10° SE night (unlit)
